FW7828 Weather Reports


time (UTC)temp
F
wind
direction
speed
knots
gust
knots
rain 1hr
in
rain 24hr
in
rain mn
in
humidity
%
barometer
mb
20260904141428 84 158 1.7 1.7 0.00 0.00 0.00 81 1013.7
20260904140925 84 124 0.0 0.9 0.00 0.00 0.00 82 1013.8
20260904140424 84 144 0.9 0.9 0.00 0.00 0.00 82 1013.7
20260904135923 83 56 1.7 1.7 0.00 0.00 0.00 81 1013.8
20260904135423 83 183 0.0 0.9 0.00 0.00 0.00 82 1013.6
20260904134920 83 177 1.7 2.6 0.00 0.00 0.00 83 1013.8
20260904134419 83 194 0.0 0.9 0.00 0.00 0.00 84 1013.9
20260904133914 83 180 1.7 2.6 0.00 0.00 0.00 84 1013.5
20260904133409 83 177 2.6 2.6 0.00 0.00 0.00 83 1013.6
20260904132904 83 166 1.7 1.7 0.00 0.00 0.00 84 1013.9
20260904132359 82 173 3.5 6.1 0.00 0.00 0.00 86 1013.8
20260904131858 82 239 1.7 1.7 0.00 0.00 0.00 86 1013.6
20260904131354 82 172 1.7 1.7 0.00 0.00 0.00 86 1013.8
20260904130849 82 199 1.7 1.7 0.00 0.00 0.00 86 1013.9
20260904130348 82 104 1.7 1.7 0.00 0.00 0.00 85 1013.6
20260904125843 82 121 0.9 0.9 0.00 0.00 0.00 86 1014.0
20260904125340 81 196 2.6 4.3 0.00 0.00 0.00 86 1013.7
20260904124839 81 196 0.9 0.9 0.00 0.00 0.00 86 1013.8
20260904124336 81 183 0.9 1.7 0.00 0.00 0.00 87 1014.0
20260904123830 80 166 0.0 0.9 0.00 0.00 0.00 87 1014.1
20260904123326 80 117 1.7 1.7 0.00 0.00 0.00 88 1014.1
20260904122821 80 24 0.0 0.0 0.00 0.00 0.00 88 1014.1
20260904122320 80 31 0.0 0.0 0.00 0.00 0.00 89 1014.3
20260904121816 80 124 1.7 1.7 0.00 0.00 0.00 89 1014.3
20260904121312 80 259 0.0 0.0 0.00 0.00 0.00 89 1014.2
20260904120808 80 129 2.6 2.6 0.00 0.00 0.00 90 1014.2
20260904120303 80 78 0.9 0.9 0.00 0.00 0.00 90 1014.4
20260904115758 79 202 0.0 0.9 0.00 0.00 0.00 90 1014.0
20260904115254 79 211 1.7 1.7 0.00 0.00 0.00 90 1013.8
20260904114748 79 349 0.0 0.9 0.00 0.00 0.00 90 1014.0
20260904114248 79 146 0.0 0.9 0.00 0.00 0.00 90 1014.0
20260904113743 79 301 0.0 0.9 0.00 0.00 0.00 91 1014.0
20260904113242 79 3 0.0 0.0 0.00 0.00 0.00 91 1014.2
20260904112737 79 43 2.6 4.3 0.00 0.00 0.00 91 1013.7
20260904112233 79 330 0.0 0.0 0.00 0.00 0.00 91 1013.8
20260904111729 79 158 0.9 1.7 0.00 0.00 0.00 91 1013.9
20260904111224 79 123 0.9 0.9 0.00 0.00 0.00 91 1013.9
20260904110720 79 98 0.0 0.0 0.00 0.00 0.00 91 1013.7
20260904110219 79 334 1.7 1.7 0.00 0.00 0.00 91 1013.8
20260904105714 79 212 0.9 0.9 0.00 0.00 0.00 91 1013.7
20260904105209 79 194 0.9 0.9 0.00 0.00 0.00 91 1013.7
20260904104704 79 166 0.9 0.9 0.00 0.00 0.00 91 1013.9
20260904104200 79 354 0.9 0.9 0.00 0.00 0.00 91 1013.6
20260904103656 79 248 1.7 1.7 0.00 0.00 0.00 91 1013.4
20260904103151 79 345 0.0 0.9 0.00 0.00 0.00 91 1013.6
20260904102647 79 323 1.7 1.7 0.00 0.00 0.00 91 1013.5
20260904102142 79 358 0.9 0.9 0.00 0.00 0.00 91 1013.6
20260904101639 79 326 0.9 1.7 0.00 0.00 0.00 91 1013.6
20260904101134 79 148 0.0 0.9 0.00 0.00 0.00 91 1013.9
20260904100630 79 101 0.9 1.7 0.00 0.00 0.00 91 1013.8
20260904100125 79 147 2.6 5.2 0.00 0.00 0.00 91 1013.8
20260904095619 79 316 0.9 1.7 0.00 0.00 0.00 92 1013.6
20260904095114 79 344 0.9 0.9 0.00 0.00 0.00 92 1013.7
20260904094609 79 291 0.0 0.9 0.00 0.00 0.00 91 1014.0
20260904094104 79 357 0.0 0.0 0.00 0.00 0.00 91 1013.6
20260904093601 79 342 0.0 0.0 0.00 0.00 0.00 91 1013.8
20260904093101 79 9 0.0 0.0 0.00 0.00 0.00 91 1013.6
20260904092557 79 229 0.9 1.7 0.00 0.00 0.00 91 1013.7
20260904092053 80 332 0.9 0.9 0.00 0.00 0.00 91 1013.9
20260904091549 80 143 2.6 2.6 0.00 0.00 0.00 91 1013.9
20260904091048 80 349 0.0 0.0 0.00 0.00 0.00 91 1013.9
20260904090544 80 294 0.9 0.9 0.00 0.00 0.00 90 1013.7
20260904090039 80 4 1.7 1.7 0.00 0.00 0.00 90 1013.5
20260904085534 80 5 0.0 0.9 0.00 0.00 0.00 90 1013.6
20260904085034 80 54 0.9 1.7 0.00 0.00 0.00 90 1013.7
20260904084530 80 211 0.9 0.9 0.00 0.00 0.00 90 1013.7
20260904084026 80 344 0.9 2.6 0.00 0.00 0.00 90 1013.5
20260904083522 80 163 0.9 0.9 0.00 0.00 0.00 90 1013.7
20260904083017 80 315 0.9 0.9 0.00 0.00 0.00 90 1013.6
20260904082512 80 34 0.0 0.0 0.00 0.00 0.00 90 1013.5
20260904082007 80 282 0.9 1.7 0.00 0.00 0.00 90 1013.8
20260904081503 80 300 0.0 0.9 0.00 0.00 0.00 90 1013.8
20260904080958 80 348 0.0 0.9 0.00 0.00 0.00 90 1013.6
20260904080453 80 230 1.7 1.7 0.00 0.00 0.00 90 1013.7
20260904075949 80 259 0.0 0.0 0.00 0.00 0.00 90 1013.5
20260904075445 80 252 0.0 0.9 0.00 0.00 0.00 90 1013.8
20260904074944 80 330 0.9 1.7 0.00 0.00 0.00 90 1013.6
20260904074439 80 350 0.0 0.9 0.00 0.00 0.00 90 1013.6
20260904073934 80 124 0.9 1.7 0.00 0.00 0.00 90 1013.6
20260904073430 80 255 0.9 1.7 0.00 0.00 0.00 89 1013.8
20260904072925 80 303 0.0 0.0 0.00 0.00 0.00 89 1013.8
20260904072420 80 229 0.9 1.7 0.00 0.00 0.00 90 1013.7
20260904071915 80 324 0.9 0.9 0.00 0.00 0.00 90 1013.7
20260904071411 80 28 0.0 0.9 0.00 0.00 0.00 89 1013.5
20260904070906 80 293 0.9 0.9 0.00 0.00 0.00 90 1013.6
20260904070405 80 301 0.9 0.9 0.00 0.00 0.00 90 1013.6
20260904065904 80 283 0.9 1.7 0.00 0.00 0.00 90 1013.7
20260904065401 80 146 0.9 0.9 0.00 0.00 0.00 90 1013.6
20260904064900 80 210 0.0 0.9 0.00 0.00 0.00 90 1013.5
20260904064357 80 238 0.0 0.0 0.00 0.00 0.00 90 1013.5
20260904063852 80 359 0.0 0.9 0.00 0.00 0.00 90 1013.6
20260904063348 80 269 0.9 0.9 0.00 0.00 0.00 90 1013.4
20260904062843 80 307 0.0 0.0 0.00 0.00 0.00 90 1013.5
20260904062340 80 293 0.9 1.7 0.00 0.00 0.00 90 1013.5
20260904061835 80 162 0.0 0.9 0.00 0.00 0.00 90 1013.5
20260904061331 80 97 0.0 0.9 0.00 0.00 0.00 90 1013.9
20260904060827 80 204 0.0 0.0 0.00 0.00 0.00 90 1014.0
20260904060323 80 158 0.9 0.9 0.00 0.00 0.00 90 1014.0
20260904055818 80 9 0.0 0.0 0.00 0.00 0.00 90 1014.0
20260904055313 80 336 0.9 0.9 0.00 0.00 0.00 90 1014.2
20260904054803 80 262 0.9 0.9 0.00 0.00 0.00 90 1014.1
20260904054259 80 30 1.7 1.7 0.00 0.00 0.00 90 1014.2
20260904053754 80 347 0.0 0.0 0.00 0.00 0.00 90 1014.2
20260904053253 80 343 0.0 0.9 0.00 0.00 0.00 90 1014.2
20260904052750 80 180 0.9 0.9 0.00 0.00 0.00 90 1014.5
20260904052245 80 105 0.0 0.9 0.00 0.00 0.00 89 1014.5
20260904051742 80 349 0.0 0.0 0.00 0.00 0.00 89 1014.7
20260904051237 80 258 1.7 1.7 0.00 0.00 0.00 89 1014.6
20260904050732 80 193 1.7 2.6 0.00 0.00 0.00 90 1014.4
20260904050228 81 242 1.7 2.6 0.00 0.00 0.00 89 1014.5
20260904045723 81 164 2.6 2.6 0.00 0.00 0.00 89 1014.5
20260904045218 81 232 0.0 0.0 0.00 0.00 0.00 89 1014.4
20260904044712 81 254 0.9 0.9 0.00 0.00 0.00 89 1014.6
20260904044209 81 216 0.9 0.9 0.00 0.00 0.00 89 1014.6
20260904043705 81 258 1.7 1.7 0.00 0.00 0.00 89 1014.7
20260904043201 81 146 0.0 0.0 0.00 0.00 0.00 88 1014.6
20260904042657 81 313 1.7 2.6 0.00 0.00 0.00 88 1014.6
20260904042153 81 359 2.6 2.6 0.00 0.00 0.00 88 1014.5
20260904041647 81 187 1.7 2.6 0.00 0.00 0.00 88 1014.7
20260904041143 81 8 0.9 1.7 0.00 0.00 0.00 88 1014.7
20260904040639 81 119 0.9 0.9 0.00 0.00 0.00 88 1014.7
20260904040135 81 280 0.9 1.7 0.00 0.00 0.00 88 1014.7
20260904035631 81 340 0.0 0.0 0.00 0.00 0.00 88 1014.6
20260904035130 82 109 0.0 0.0 0.00 0.00 0.00 88 1014.6
20260904034630 82 253 1.7 1.7 0.00 0.00 0.00 88 1014.5
20260904034125 82 180 1.7 2.6 0.00 0.00 0.00 87 1014.6
20260904033621 82 237 0.9 0.9 0.00 0.00 0.00 87 1014.6
20260904033119 82 190 1.7 1.7 0.00 0.00 0.00 87 1014.6
20260904032614 82 231 0.0 0.0 0.00 0.00 0.00 87 1014.7
20260904032113 82 252 0.9 0.9 0.00 0.00 0.00 86 1014.7
20260904031612 82 309 0.9 1.7 0.00 0.00 0.00 86 1014.7
20260904031108 82 220 0.9 0.9 0.00 0.00 0.00 85 1014.8
20260904030604 82 225 0.0 0.9 0.00 0.00 0.00 85 1014.5
20260904030059 82 205 0.0 0.9 0.00 0.00 0.00 85 1014.8
20260904025554 83 191 0.9 0.9 0.00 0.00 0.00 85 1014.8
20260904025049 83 203 0.0 0.0 0.00 0.00 0.00 85 1014.6
20260904024545 83 210 0.9 0.9 0.00 0.00 0.00 84 1014.8
20260904024041 83 341 0.9 0.9 0.00 0.00 0.00 85 1014.6
20260904023537 83 161 0.9 1.7 0.00 0.00 0.00 84 1015.0
20260904023033 83 214 0.9 1.7 0.00 0.00 0.00 84 1014.9
20260904022533 83 180 2.6 4.3 0.00 0.00 0.00 84 1014.9
20260904022030 83 184 2.6 2.6 0.00 0.00 0.00 84 1014.9
20260904021525 83 200 0.9 0.9 0.00 0.00 0.00 84 1015.3
20260904021020 83 247 0.0 0.0 0.00 0.00 0.00 84 1015.4
20260904020520 83 191 0.0 0.0 0.00 0.00 0.00 84 1015.1
20260904020015 84 209 0.9 0.9 0.00 0.00 0.00 83 1015.1
20260904015509 84 233 1.7 1.7 0.00 0.00 0.00 83 1015.2
20260904015008 84 125 0.0 0.9 0.00 0.00 0.00 83 1015.4
20260904014503 84 216 0.0 0.0 0.00 0.00 0.00 84 1015.2
20260904013958 84 238 0.9 1.7 0.00 0.00 0.00 84 1015.1
20260904013454 84 190 0.9 0.9 0.00 0.00 0.00 85 1015.1
20260904012951 84 354 0.0 0.9 0.00 0.00 0.00 85 1015.0
20260904012450 83 162 0.9 0.9 0.00 0.00 0.00 85 1014.9
20260904011944 83 220 0.0 0.0 0.00 0.00 0.00 86 1014.9
20260904011439 84 5 0.0 0.0 0.00 0.00 0.00 85 1015.0
20260904010935 84 10 0.0 0.0 0.00 0.00 0.00 85 1014.8
20260904010431 84 353 0.0 0.0 0.00 0.00 0.00 84 1014.8
20260904005926 84 192 0.0 0.9 0.00 0.00 0.00 84 1014.8
20260904005422 85 239 0.0 0.9 0.00 0.00 0.00 83 1014.3
20260904004921 85 137 0.0 0.0 0.00 0.00 0.00 83 1014.4
20260904004418 86 182 0.9 1.7 0.00 0.00 0.00 82 1014.1
20260904003919 86 88 0.9 0.9 0.00 0.00 0.00 82 1014.2
20260904003414 86 219 0.9 1.7 0.00 0.00 0.00 82 1014.1
20260904002909 86 267 0.0 0.9 0.00 0.00 0.00 81 1014.0
20260904002406 86 251 2.6 4.3 0.00 0.00 0.00 82 1013.8
20260904001904 86 207 0.9 0.9 0.00 0.00 0.00 83 1013.4
20260904001400 86 182 1.7 1.7 0.00 0.00 0.00 83 1013.5
20260904000855 84 82 1.7 2.6 0.00 0.00 0.00 85 1013.5
20260904000355 83 227 1.7 2.6 0.00 0.00 0.00 91 1013.4
20260903235855 83 357 0.0 0.0 0.00 0.00 0.00 91 1013.4
20260903235351 83 357 0.0 0.0 0.00 0.00 0.00 91 1013.2
20260903234850 83 354 0.0 0.0 0.00 0.00 0.00 91 1013.1
20260903234346 83 354 0.0 0.0 0.00 0.00 0.00 91 1013.0
20260903233842 83 354 0.0 0.0 0.00 0.00 0.00 90 1013.1
20260903233338 83 354 0.0 0.0 0.00 0.00 0.00 90 1012.9
20260903232837 84 354 0.0 0.0 0.00 0.00 0.00 90 1012.8
20260903232333 84 354 0.0 0.0 0.00 0.00 0.00 90 1012.9
20260903231832 84 356 0.0 0.0 0.00 0.00 0.00 90 1013.0
20260903231328 84 356 0.0 0.0 0.00 0.00 0.00 89 1012.9
20260903230823 84 355 0.0 0.0 0.00 0.00 0.00 89 1013.0
20260903230318 84 356 0.0 0.0 0.00 0.00 0.00 89 1013.1
20260903225814 85 354 0.0 0.0 0.00 0.00 0.00 88 1013.1
20260903225310 85 354 0.0 0.0 0.00 0.00 0.00 88 1013.0
20260903224807 85 353 0.0 0.0 0.00 0.00 0.00 88 1013.0
20260903224302 85 3 0.0 0.0 0.00 0.00 0.00 88 1012.8
20260903223758 86 355 0.0 0.0 0.00 0.00 0.00 88 1013.0
20260903223256 86 356 0.0 0.0 0.00 0.00 0.00 88 1013.0
20260903222751 86 359 0.0 0.9 0.00 0.00 0.00 87 1012.9
20260903222250 87 341 0.0 0.0 0.00 0.00 0.00 87 1012.9
20260903221745 87 2 0.0 0.0 0.00 0.00 0.00 87 1013.0
20260903221244 87 353 0.0 0.0 0.00 0.00 0.00 86 1012.9
20260903220742 87 346 0.0 0.0 0.00 0.00 0.00 86 1013.2
20260903220237 88 351 0.0 0.0 0.00 0.00 0.00 85 1013.1
20260903215736 88 349 0.0 0.0 0.00 0.00 0.00 85 1013.1
20260903215232 89 346 0.0 0.0 0.00 0.00 0.00 84 1013.1
20260903214729 89 328 0.0 0.0 0.00 0.00 0.00 84 1013.2
20260903214226 90 358 0.0 0.0 0.00 0.00 0.00 84 1013.1
20260903213720 90 355 0.0 0.0 0.00 0.00 0.00 82 1013.2
20260903213216 90 9 0.0 0.0 0.00 0.00 0.00 80 1013.2
20260903212712 91 318 0.0 0.9 0.00 0.00 0.00 80 1013.3
20260903212208 91 6 0.0 0.0 0.00 0.00 0.00 79 1013.2
20260903211707 91 306 0.0 0.0 0.00 0.00 0.00 79 1013.2
20260903211204 91 323 0.0 0.0 0.00 0.00 0.00 79 1013.3
20260903210700 92 9 0.0 0.0 0.00 0.00 0.00 77 1013.4
20260903210155 92 341 0.0 0.0 0.00 0.00 0.00 77 1013.3
20260903205655 93 8 0.0 0.0 0.00 0.00 0.00 76 1013.2
20260903205153 93 330 0.0 0.9 0.00 0.00 0.00 74 1013.3
20260903204649 94 244 0.0 0.0 0.00 0.00 0.00 71 1013.5
20260903204146 94 16 0.0 0.0 0.00 0.00 0.00 71 1013.3
20260903203641 95 43 0.0 0.0 0.00 0.00 0.00 70 1013.6
20260903203136 96 295 0.0 0.0 0.00 0.00 0.00 66 1013.5
20260903202631 97 216 0.0 0.9 0.00 0.00 0.00 63 1013.6
20260903202126 98 283 0.0 0.0 0.00 0.00 0.00 62 1013.6
20260903201620 97 272 0.9 0.9 0.00 0.00 0.00 61 1013.9
20260903201120 98 350 0.0 0.0 0.00 0.00 0.00 63 1014.0
20260903200615 98 285 0.0 0.0 0.00 0.00 0.00 62 1013.9
20260903200110 98 200 0.9 1.7 0.00 0.00 0.00 63 1014.3
20260903195606 96 257 0.0 0.0 0.00 0.00 0.00 63 1014.1
20260903195101 96 304 0.9 0.9 0.00 0.00 0.00 63 1014.0
20260903194556 95 107 2.6 2.6 0.00 0.00 0.00 64 1014.1
20260903194051 95 109 0.0 0.9 0.00 0.00 0.00 69 1014.0
20260903193548 95 167 0.9 1.7 0.00 0.00 0.00 67 1014.2
20260903193043 96 191 0.9 1.7 0.00 0.00 0.00 68 1014.2
20260903192539 95 225 0.0 0.9 0.00 0.00 0.00 67 1014.4
20260903192034 95 179 0.9 1.7 0.00 0.00 0.00 67 1014.3
20260903191531 95 176 1.7 1.7 0.00 0.00 0.00 65 1014.3
20260903191025 95 212 1.7 2.6 0.00 0.00 0.00 66 1014.3
20260903190524 95 144 2.6 4.3 0.00 0.00 0.00 66 1014.5
20260903190024 95 220 0.0 0.0 0.00 0.00 0.00 68 1014.4
20260903185520 94 342 0.0 0.0 0.00 0.00 0.00 66 1014.6
20260903185015 95 132 2.6 2.6 0.00 0.00 0.00 64 1014.6
20260903184512 97 275 0.0 0.0 0.00 0.00 0.00 64 1014.6
20260903184011 96 226 0.0 0.9 0.00 0.00 0.00 64 1014.5
20260903183511 94 234 0.0 0.0 0.00 0.00 0.00 67 1014.6
20260903183006 94 243 0.9 1.7 0.00 0.00 0.00 69 1014.7
20260903182504 93 172 0.9 1.7 0.00 0.00 0.00 68 1014.7
20260903182000 93 256 0.0 0.0 0.00 0.00 0.00 68 1014.8
20260903181454 93 199 0.9 0.9 0.00 0.00 0.00 69 1014.6
20260903180953 93 156 0.9 1.7 0.00 0.00 0.00 68 1014.6
20260903180448 95 155 0.9 0.9 0.00 0.00 0.00 67 1014.6
20260903175948 95 149 1.7 1.7 0.00 0.00 0.00 66 1014.9
20260903175442 95 190 1.7 1.7 0.00 0.00 0.00 65 1014.9
20260903174941 93 105 0.0 0.0 0.00 0.00 0.00 66 1014.8
20260903174437 92 105 0.9 0.9 0.00 0.00 0.00 72 1015.1
20260903173936 92 150 2.6 4.3 0.00 0.00 0.00 69 1015.2
20260903173431 91 227 2.6 2.6 0.00 0.00 0.00 71 1015.1
20260903172927 91 162 0.9 0.9 0.00 0.00 0.00 72 1015.1
20260903172422 91 103 1.7 1.7 0.00 0.00 0.00 71 1015.2
20260903171918 91 146 2.6 2.6 0.00 0.00 0.00 70 1015.4
20260903171413 91 139 2.6 5.2 0.00 0.00 0.00 70 1015.3
20260903170912 91 149 1.7 1.7 0.00 0.00 0.00 70 1015.5
20260903170408 90 175 0.9 0.9 0.00 0.00 0.00 73 1015.7
20260903165906 90 151 0.9 1.7 0.00 0.00 0.00 74 1015.4
20260903165401 89 140 1.7 1.7 0.00 0.00 0.00 75 1015.6
20260903164855 89 146 2.6 2.6 0.00 0.00 0.00 75 1015.8
20260903164351 89 157 1.7 1.7 0.00 0.00 0.00 76 1015.6
20260903163850 89 136 0.9 1.7 0.00 0.00 0.00 76 1015.8
20260903163346 90 292 0.0 0.9 0.00 0.00 0.00 75 1015.7
20260903162842 90 155 1.7 1.7 0.00 0.00 0.00 76 1015.7
20260903162339 90 226 1.7 2.6 0.00 0.00 0.00 75 1015.5
20260903161834 90 248 0.0 0.9 0.00 0.00 0.00 76 1015.8
20260903161329 89 125 0.0 0.9 0.00 0.00 0.00 76 1016.0
20260903160825 89 87 2.6 4.3 0.00 0.00 0.00 75 1016.0
20260903160324 89 156 0.0 0.0 0.00 0.00 0.00 75 1016.1
20260903155822 88 179 0.9 0.9 0.00 0.00 0.00 76 1016.0
20260903155318 88 144 1.7 2.6 0.00 0.00 0.00 77 1016.2
20260903154813 88 136 2.6 2.6 0.00 0.00 0.00 77 1016.0
20260903154309 88 145 2.6 2.6 0.00 0.00 0.00 77 1016.2
20260903153805 88 129 2.6 2.6 0.00 0.00 0.00 76 1016.2
20260903153300 87 100 0.9 0.9 0.00 0.00 0.00 77 1016.3
20260903152756 87 80 1.7 1.7 0.00 0.00 0.00 78 1016.5
20260903152252 87 120 0.9 0.9 0.00 0.00 0.00 78 1016.3
20260903151752 87 128 1.7 1.7 0.00 0.00 0.00 77 1016.5
20260903151247 87 138 1.7 2.6 0.00 0.00 0.00 78 1016.5
20260903150748 87 120 0.9 0.9 0.00 0.00 0.00 78 1016.1
20260903150242 86 109 0.9 1.7 0.00 0.00 0.00 78 1016.4
20260903145737 86 131 2.6 2.6 0.00 0.00 0.00 77 1016.4
20260903145232 86 118 0.0 0.0 0.00 0.00 0.00 78 1016.2
20260903144731 86 176 1.7 1.7 0.00 0.00 0.00 80 1016.3
20260903144227 85 162 1.7 2.6 0.00 0.00 0.00 81 1016.2
20260903143723 84 166 0.9 0.9 0.00 0.00 0.00 82 1016.4
20260903143219 84 183 1.7 2.6 0.00 0.00 0.00 81 1016.4
20260903142714 83 114 1.7 1.7 0.00 0.00 0.00 82 1016.2
20260903142211 83 152 2.6 2.6 0.00 0.00 0.00 81 1016.2
20260903141706 83 141 0.0 0.9 0.00 0.00 0.00 82 1016.4